Lid_Strength_Index
3 5 6 7 11 13 15 14 12 12 11 8 10 11 11 11 11 13 5 2 1 1 -0 -0 -1 -1 -1 -1 -1 -1 -1 -1 -1 -1 -1 -1 -1 -1 -1 -1 -1 -1 -2 -2 -1 -0 0 1 -0
5 5 7 11 14 17 15 14 13 11 11 10 9 10 9 10 8 6 4 2 1 0 0 0 -0 -1 -1 -1 -1 -1 -1 -2 -1 -1 -1 -1 -1 -1 -1 -1 -1 -1 -2 -2 -2 -0 1 1 1
5 6 9 13 16 16 15 14 11 12 11 10 8 7 8 10 6 6 3 2 0 0 0 0 -0 -1 -1 -1 -1 -1 -1 -1 -1 -1 -1 -1 -1 -1 -2 -2 -2 -1 -1 -2 -2 -1 0 1 0
6 8 11 14 15 13 13 11 12 10 11 10 10 9 10 7 7 4 3 0 1 0 0 0 -0 -1 -1 -1 -1 -1 -1 -1 -1 -1 -1 -1 -1 -2 -2 -2 -2 -1 -1 -2 -1 -1 -0 -0 -1
9 11 14 15 14 13 14 12 12 12 10 9 10 10 11 8 4 3 2 1 2 2 1 1 -0 -1 -1 -1 -1 -1 -1 -1 -1 -1 -1 -2 -2 -2 -1 -2 -2 -1 -1 -1 -1 -1 0 1 0
10 12 16 16 15 13 12 12 12 12 12 11 10 10 9 8 6 3 3 2 2 2 1 1 1 1 -0 -1 -1 -1 -1 -1 -1 -1 -1 -2 -2 -1 -1 -1 -2 -1 -1 -1 -1 -1 0 1 1
11 14 16 16 16 14 12 12 10 12 12 11 10 11 10 8 7 4 4 5 4 2 1 1 1 1 2 0 -0 -0 -1 -1 -1 -1 -1 -1 -1 -2 -2 -1 -2 -1 -1 -1 -1 -1 -0 1 2
11 13 15 16 15 15 12 12 12 11 11 10 9 12 11 9 8 5 4 4 5 3 2 1 1 -0 1 1 1 1 0 -0 -0 -0 0 1 0 -0 -0 -0 -2 -1 -1 -1 -1 -1 0 1 2
11 15 17 16 15 14 12 12 11 11 10 12 11 9 10 8 7 7 6 5 5 3 3 3 2 0 0 1 2 2 1 1 1 1 2 2 2 1 1 1 0 -0 -1 -1 -1 -0 0 2 5
13 16 15 14 13 11 12 12 12 11 12 13 12 10 9 8 8 8 8 7 7 5 4 3 3 2 0 0 1 1 1 1 1 1 2 2 2 2 2 2 1 1 -0 -1 -1 -0 2 6 12
13 14 14 12 11 11 12 12 12 11 13 12 12 12 10 11 11 11 11 11 11 9 6 3 3 3 1 1 1 1 2 2 2 1 1 3 3 2 2 2 2 4 4 4 3 4 6 8 11
12 11 11 10 10 11 12 12 12 12 11 11 12 11 11 12 12 12 12 11 12 11 10 6 2 2 2 1 1 2 2 3 3 1 1 2 3 3 3 3 3 3 4 5 6 6 7 8 10
12 12 11 10 11 11 11 12 12 11 12 11 11 11 12 12 13 12 12 11 11 11 10 8 6 1 3 2 2 2 2 3 3 3 1 2 3 3 3 3 4 4 4 4 6 6 7 8 9
13 12 11 11 11 12 12 13 12 13 12 12 11 13 13 13 13 13 12 12 12 11 10 8 6 2 2 3 3 2 2 2 3 2 2 3 3 3 3 4 4 4 4 5 6 6 7 8 10
12 14 13 13 13 13 12 14 13 12 12 12 13 14 14 13 13 14 13 13 12 12 11 9 4 3 3 3 3 3 3 3 2 2 2 2 3 3 3 3 3 3 5 5 7 7 8 9 10
15 16 16 13 13 13 13 15 12 12 13 14 15 16 15 15 15 15 14 14 13 12 12 10 7 4 4 4 4 4 4 4 4 4 3 3 2 3 3 4 4 5 5 5 5 6 6 8 10
16 17 17 15 13 14 14 15 12 13 14 15 16 16 16 16 16 15 15 15 14 13 12 12 10 8 6 6 7 8 8 8 9 9 8 6 5 3 3 3 4 4 4 5 5 6 8 8 9
17 18 18 17 14 14 16 15 13 14 14 16 17 17 17 17 16 15 15 15 14 14 13 12 12 11 9 9 9 9 10 10 10 10 10 10 9 7 5 4 4 4 5 5 6 7 9 9 10
16 17 17 16 14 16 15 16 16 15 16 17 17 17 17 17 16 15 15 15 15 14 14 14 13 13 11 12 11 11 12 12 12 12 12 11 11 11 10 8 8 7 7 8 8 9 9 9 11
16 17 17 16 14 15 16 16 17 16 16 17 17 17 17 17 16 16 16 16 16 15 15 14 14 14 13 13 13 13 13 14 14 14 14 14 14 13 13 12 12 11 11 10 10 10 11 11 12
18 18 18 17 16 16 18 18 18 17 16 16 17 17 17 17 17 17 16 17 17 16 16 15 15 14 14 14 13 14 14 15 16 16 16 15 15 15 15 15 14 13 13 13 13 12 13 13 13
19 15 16 16 18 19 17 21 19 18 18 17 17 18 18 17 16 16 17 17 17 17 16 15 15 15 15 14 15 16 16 17 16 16 16 16 16 16 15 15 15 15 15 14 14 13 14 14 15
16 15 16 17 18 20 19 20 20 18 19 18 18 17 17 17 17 17 17 16 16 17 17 17 16 15 15 15 15 16 16 16 16 16 17 16 16 16 16 15 16 16 15 15 15 15 14 14 14
14 16 17 18 19 22 18 19 19 19 17 17 17 17 16 17 17 17 16 16 17 17 17 17 16 16 16 15 16 16 17 17 17 17 17 17 17 16 16 16 16 16 16 16 16 16 16 15 14
17 18 21 22 22 22 19 19 18 17 16 16 16 16 16 16 17 17 17 18 17 17 17 17 17 17 17 16 16 16 17 17 17 17 18 17 17 17 17 17 16 16 16 16 16 17 17 16 16
17 17 20 24 23 21 18 20 17 17 16 14 15 15 16 17 17 17 17 17 17 17 17 17 17 17 16 16 16 16 16 16 17 17 17 17 17 17 17 17 17 16 16 16 17 17 17 18 18
17 18 16 19 26 23 19 18 17 16 17 16 16 16 17 17 17 17 17 17 17 17 16 16 16 16 15 15 15 15 16 16 16 16 15 15 15 14 15 16 15 15 15 16 16 16 17 17 17
15 14 18 19 24 26 20 19 18 18 18 17 17 17 17 17 17 17 16 16 16 16 16 16 15 15 15 15 15 15 15 15 15 15 15 15 15 15 15 15 15 15 14 14 15 15 15 16 16
16 17 17 16 18 23 25 20 17 16 16 16 16 16 16 16 16 16 16 16 15 16 16 15 15 15 15 14 15 15 15 15 15 15 15 15 15 15 15 15 15 15 14 14 15 15 15 15 15
16 15 16 18 20 20 20 18 16 15 14 14 15 14 15 15 15 16 15 15 16 16 15 15 15 15 15 15 15 15 15 15 16 16 16 15 16 15 15 15 15 15 15 15 15 15 15 15 15